Regional Weather Roundup
Issued by NWS

Home | Current Version | Previous Version | Graphics & Text | Print | Product List | Glossary Off
Versions: 1 2 3 4 5 6 7 8 9 10 11 12 13 14 15 16 17 18 19 20 21 22 23 24 25 26 27 28 29 30 31 32 33 34 35 36 37 38 39 40 41 42 43 44 45 46 47 48 49 50

000
ASUS43 KTOP 172359
RWRKS

WEATHER ROUNDUP FOR KANSAS
NATIONAL WEATHER SERVICE GOODLAND KS
600 PM CST WED DEC 17 2014

NOTE:  "FAIR" INDICATES FEW OR NO CLOUDS BELOW 12,000 FEET WITH NO
SIGNIFICANT WEATHER AND/OR OBSTRUCTIONS TO VISIBILITY.

KSZ001>006-013>018-027>032-041>047-180100-
NORTHWEST KANSAS

CITY           SKY/WX    TMP DP  RH WIND       PRES   REMARKS
GOODLAND       FOG       24  23  96 E8        30.02S VSB 1/2
6HR MIN TEMP:  24; 6HR MAX TEMP:  25;

HAYS           CLOUDY    28  19  69 SE14      30.11S WCI  17
HILL CITY      CLOUDY    28  23  81 NE8       30.12R
6HR MIN TEMP:  26; 6HR MAX TEMP:  29;

RUSSELL        CLOUDY    28  25  88 E13       30.12R WCI  17
6HR MIN TEMP:  28; 6HR MAX TEMP:  31;

$$

KSZ061>065-074>080-084>089-180100-
SOUTHWEST KANSAS

CITY           SKY/WX    TMP DP  RH WIND       PRES   REMARKS
DODGE CITY     CLOUDY    31  29  92 SE12      30.06R FOG     WCI  22
6HR MIN TEMP:  31; 6HR MAX TEMP:  36;

ELKHART          N/A     38  27  65 N6          N/A
GARDEN CITY    CLOUDY    33  29  85 SE14      30.00S WCI  23
6HR MIN TEMP:  33; 6HR MAX TEMP:  41;

GREAT BEND     CLOUDY    30  23  74 E10       30.14R WCI  21
LIBERAL        CLOUDY    37  30  75 SE10      30.00R WCI  30
$$

KSZ066>073-081>083-090>101-180100-
SOUTHEAST KANSAS

CITY           SKY/WX    TMP DP  RH WIND       PRES   REMARKS
CHANUTE        MIX PCPN  32  28  85 E6        30.23R FOG
6HR MIN TEMP:  29; 6HR MAX TEMP:  32; 6HR PCP: TRACE;

COFFEYVILLE    FRZ RAIN  32  31  96 NE6       30.21F FOG
6HR MIN TEMP:  32; 6HR MAX TEMP:  34; 6HR PCP: TRACE;

HUTCHINSON     CLOUDY    32  25  75 E9        30.17R
6HR MIN TEMP:  30; 6HR MAX TEMP:  33;

MEDICINE LODGE   N/A     31  30  96 E9        30.12S
NEWTON         CLOUDY    28  23  80 E10       30.19R WCI  19
PARSONS        FRZ RAIN  32  31  96 E6        30.22S FOG
6HR MIN TEMP:  31; 6HR MAX TEMP:  33; 6HR PCP: TRACE;

WICHITA INTL   LGT SNOW  31  29  92 SE5       30.18R VSB 1
6HR MIN TEMP:  31; 6HR MAX TEMP:  34; 6HR PCP:  0.09;

WICHITA JABRA  LGT SNOW  29  28  96 E5        30.18R FOG
6HR MIN TEMP:  29; 6HR MAX TEMP:  32; 6HR PCP:  0.12;

WICHITA MCCONL LGT SNOW  30  28  93 NE5       30.18R FOG
WINFIELD       LGT SNOW  32  30  92 E7        30.19R FOG
6HR MIN TEMP:  32; 6HR MAX TEMP:  34; 6HR PCP:  0.12;

$$

KSZ007>012-019>026-033>040-048>060-102>105-180100-
NORTHEAST KANSAS

CITY           SKY/WX    TMP DP  RH WIND       PRES   REMARKS
CONCORDIA      CLOUDY    27  20  75 E10       30.18F WCI  17
6HR MIN TEMP:  25; 6HR MAX TEMP:  28;

EMPORIA        CLOUDY    29  25  85 E7        30.22R
6HR MIN TEMP:  27; 6HR MAX TEMP:  29;

LAWRENCE       CLOUDY    30  20  66 NE6       30.24F
6HR MIN TEMP:  27; 6HR MAX TEMP:  30;

MANHATTAN      CLOUDY    28  20  71 E7        30.23R
6HR MIN TEMP:  26; 6HR MAX TEMP:  28;

OLATHE IND     CLOUDY    30  22  72 E6        30.23F
6HR MIN TEMP:  28; 6HR MAX TEMP:  30; 6HR PCP: TRACE;

OLATHE EXE     CLOUDY    31  21  66 E6        30.22F
6HR MIN TEMP:  28; 6HR MAX TEMP:  31;

SALINA         CLOUDY    28  22  78 E8        30.20F
6HR MIN TEMP:  28; 6HR MAX TEMP:  30;

TOPEKA BILLARD CLOUDY    31  22  69 NE8       30.23F
6HR MIN TEMP:  28; 6HR MAX TEMP:  31;

TOPEKA FORBES  CLOUDY    30  22  72 NE6       30.22F
6HR MIN TEMP:  27; 6HR MAX TEMP:  30;

$$



USA.gov is the U.S. government's official web portal to all federal, state and local government web resources and services.